Tracking 26006 objects as of 17-Aug-2022
HD Live streaming from Space Station
objects crossing your sky now

RESURS O1 DEB

Track RESURS O1 DEB now!
10-day predictions


NORAD ID: 47199
Int'l Code: 1994-074CM
Perigee: 593.0 km
Apogee: 598.5 km
Inclination: 97.9 °
Period: 96.5 minutes
Semi major axis: 6966 km
RCS: Unknown
Launch date: November 4, 1994
Source: Commonwealth of Independent States (former USSR) (CIS)
Launch site: TYURATAM MISSILE AND SPACE COMPLEX (TTMTR)

Note: This is SATELLITE DEBRIS
aabbcc
Your satellite tracking list
Your tracking list is empty




NASA's NSSDC Master Catalog

Two Line Element Set (TLE):
1 47199U 94074CM  22229.09803200  .00023550  00000-0  22651-2 0  9996
2 47199  97.8819 279.2179 0003953 167.5304 192.6014 14.92987725 94805
Source of the keplerian elements: AFSPC